Date String (YYYY-MM-DD hh:mm:ss) UTC,Instrument flags,Ambient pressure (hPa),Sample flow (lpm),Bypass flow (lpm),Sample temperature (°C),Ambient temperature (°C),ASC tube jacket temperature (°C),LED temperature (°C),Box temperature (°C),Sample RH (%),Span deviation,Mass concentration (μg/m³),Mass concentration (μg/m³),Mass concentration (μg/m³)
DateTimeUTC,F1_M11,P_M11,Q1_M11,Q2_M11,T1_M11,T2_M11,T3_M11,T4_M11,T5_M11,U1_M11,ZSPAN_M11,X0_M11,X2_M11,X1_M11
2023-04-07 22:00:00,,0829.7,4.99,0.00,25.8,24.6,00.0,34.1,27.4,07.3,0000.0,0016.25,0005.73,0004.93
2023-04-07 22:01:00,,0829.7,5.02,0.00,25.8,24.6,00.0,34.1,27.4,07.3,0000.0,0016.79,0005.75,0004.94
2023-04-07 22:02:00,,0829.7,4.98,0.00,25.8,24.6,00.0,34.1,27.4,07.2,0000.0,0017.17,0005.76,0004.95
2023-04-07 22:03:00,,0829.7,5.00,0.00,25.8,24.6,00.0,34.1,27.4,07.2,0000.0,0017.03,0005.75,0004.98
2023-04-07 22:04:00,,0829.7,5.01,0.00,25.8,24.6,00.0,34.1,27.4,07.3,0000.0,0015.63,0005.74,0005.01
2023-04-07 22:05:00,,0829.7,5.01,0.00,25.9,24.6,00.0,34.1,27.4,07.2,0000.0,0015.89,0005.77,0005.06
2023-04-07 22:06:00,,0829.7,5.00,0.00,25.9,24.6,00.0,34.1,27.4,07.3,0000.0,0015.99,0005.78,0005.09
2023-04-07 22:07:00,,0829.7,4.99,0.00,25.9,24.6,00.0,34.2,27.5,07.2,0000.0,0016.12,0005.75,0005.09
2023-04-07 22:08:00,,0829.7,4.99,0.00,25.9,24.6,00.0,34.2,27.4,07.1,0000.0,0015.43,0005.72,0005.11
2023-04-07 22:09:00,,0829.7,4.99,0.00,25.9,24.6,00.0,34.2,27.4,07.1,0000.0,0014.42,0005.70,0005.11
2023-04-07 22:10:00,,0829.7,5.00,0.00,25.9,24.6,00.0,34.2,27.5,07.1,0000.0,0014.34,0005.71,0005.11
2023-04-07 22:11:00,,0829.7,5.01,0.00,25.9,24.6,00.0,34.2,27.5,07.3,0000.0,0014.14,0005.73,0005.10
2023-04-07 22:12:00,,0829.7,5.01,0.00,25.9,24.7,00.0,34.2,27.5,07.5,0000.0,0013.46,0005.70,0005.07
2023-04-07 22:13:00,,0829.7,5.00,0.00,25.9,24.7,00.0,34.2,27.5,07.5,0000.0,0012.59,0005.71,0005.06
2023-04-07 22:14:00,,0829.7,5.00,0.00,26.0,24.7,00.0,34.2,27.5,07.5,0000.0,0012.50,0005.72,0005.04
2023-04-07 22:15:00,,0829.7,5.01,0.00,26.0,24.8,00.0,34.2,27.6,07.4,0000.0,0012.95,0005.74,0005.02
2023-04-07 22:16:00,,0829.7,5.02,0.00,26.0,24.8,00.0,34.3,27.6,07.3,0000.0,0011.93,0005.75,0005.01
2023-04-07 22:17:00,,0829.7,4.98,0.00,26.0,24.8,00.0,34.3,27.6,07.3,0000.0,0012.16,0005.78,0005.01
2023-04-07 22:18:00,,0829.7,5.02,0.00,26.0,24.8,00.0,34.3,27.6,07.5,0000.0,0012.20,0005.80,0004.99
2023-04-07 22:19:00,,0829.7,5.00,0.00,26.0,24.9,00.0,34.3,27.6,07.4,0000.0,0011.92,0005.76,0004.95
2023-04-07 22:20:00,,0829.7,4.99,0.00,26.1,24.9,00.0,34.3,27.7,07.1,0000.0,0011.58,0005.75,0004.92
2023-04-07 22:21:00,,0829.7,4.98,0.00,26.1,24.9,00.0,34.3,27.7,07.4,0000.0,0012.15,0005.77,0004.89
2023-04-07 22:22:00,,0829.7,5.01,0.00,26.1,24.9,00.0,34.3,27.7,07.3,0000.0,0012.42,0005.70,0004.87
2023-04-07 22:23:00,,0829.7,5.00,0.00,26.1,24.9,00.0,34.4,27.7,07.4,0000.0,0012.62,0005.67,0004.85
2023-04-07 22:24:00,,0829.7,5.00,0.00,26.1,25.0,00.0,34.4,27.7,07.3,0000.0,0012.52,0005.60,0004.83
2023-04-07 22:25:00,,0829.6,5.01,0.00,26.2,25.0,00.0,34.4,27.8,07.1,0000.0,0012.85,0005.54,0004.79
2023-04-07 22:26:00,,0829.6,5.01,0.00,26.2,25.0,00.0,34.4,27.8,07.2,0000.0,0012.67,0005.50,0004.78
2023-04-07 22:27:00,,0829.5,5.00,0.00,26.2,25.0,00.0,34.4,27.8,07.4,0000.0,0012.85,0005.43,0004.76
2023-04-07 22:28:00,,0829.5,4.99,0.00,26.2,25.0,00.0,34.4,27.8,07.0,0000.0,0012.50,0005.41,0004.74
2023-04-07 22:29:00,,0829.4,5.00,0.00,26.2,25.0,00.0,34.4,27.8,07.0,0000.0,0012.60,0005.40,0004.73
2023-04-07 22:30:00,,0829.5,5.00,0.00,26.2,25.0,00.0,34.5,27.8,07.2,0000.0,0012.98,0005.38,0004.72
2023-04-07 22:31:00,,0829.5,5.00,0.00,26.2,25.0,00.0,34.5,27.8,07.4,0000.0,0012.68,0005.34,0004.68
2023-04-07 22:32:00,,0829.5,5.01,0.00,26.2,25.0,00.0,34.5,27.9,07.2,0000.0,0012.48,0005.27,0004.63
2023-04-07 22:33:00,,0829.5,5.00,0.00,26.3,25.0,00.0,34.5,27.9,07.1,0000.0,0012.01,0005.21,0004.60
2023-04-07 22:34:00,,0829.5,4.98,0.00,26.3,25.0,00.0,34.5,27.9,06.9,0000.0,0012.46,0005.20,0004.58
2023-04-07 22:35:00,,0829.5,5.01,0.00,26.3,25.0,00.0,34.5,27.9,07.0,0000.0,0013.02,0005.21,0004.56
2023-04-07 22:36:00,,0829.5,4.99,0.00,26.3,25.0,00.0,34.5,27.9,07.0,0000.0,0012.73,0005.20,0004.57
2023-04-07 22:37:00,,0829.5,4.99,0.00,26.3,25.1,00.0,34.6,27.9,06.8,0000.0,0012.19,0005.17,0004.56
2023-04-07 22:38:00,,0829.5,5.02,0.00,26.3,25.1,00.0,34.6,27.9,06.9,0000.0,0011.66,0005.18,0004.55
2023-04-07 22:39:00,,0829.5,5.01,0.00,26.3,25.1,00.0,34.6,27.9,07.1,0000.0,0011.55,0005.13,0004.52
2023-04-07 22:40:00,,0829.5,4.98,0.00,26.4,25.1,00.0,34.6,27.9,06.9,0000.0,0011.08,0005.04,0004.50
2023-04-07 22:41:00,,0829.5,5.01,0.00,26.4,25.1,00.0,34.6,28.0,06.8,0000.0,0010.77,0005.04,0004.50
2023-04-07 22:42:00,,0829.5,5.01,0.00,26.4,25.1,00.0,34.6,28.0,06.8,0000.0,0010.68,0005.03,0004.53
2023-04-07 22:43:00,,0829.5,4.98,0.00,26.4,25.1,00.0,34.6,28.0,06.7,0000.0,0010.38,0005.04,0004.57
2023-04-07 22:44:00,,0829.5,5.01,0.00,26.4,25.1,00.0,34.6,28.0,06.8,0000.0,0010.81,0005.07,0004.59
2023-04-07 22:45:00,,0829.6,5.00,0.00,26.4,25.2,00.0,34.7,28.0,07.0,0000.0,0010.64,0005.11,0004.62
2023-04-07 22:46:00,,0829.5,5.00,0.00,26.4,25.2,00.0,34.7,28.0,06.8,0000.0,0010.28,0005.12,0004.66
2023-04-07 22:47:00,,0829.6,5.00,0.00,26.4,25.2,00.0,34.7,28.0,06.7,0000.0,0010.22,0005.16,0004.69
2023-04-07 22:48:00,,0829.6,5.00,0.00,26.4,25.2,00.0,34.7,28.1,06.8,0000.0,0010.71,0005.18,0004.70
2023-04-07 22:49:00,,0829.6,5.01,0.00,26.4,25.2,00.0,34.7,28.1,06.8,0000.0,0011.16,0005.21,0004.72
2023-04-07 22:50:00,,0829.5,4.99,0.00,26.5,25.2,00.0,34.7,28.1,06.8,0000.0,0011.26,0005.24,0004.73
2023-04-07 22:51:00,,0829.5,4.99,0.00,26.5,25.2,00.0,34.7,28.1,06.8,0000.0,0011.31,0005.27,0004.75
2023-04-07 22:52:00,,0829.5,5.01,0.00,26.5,25.2,00.0,34.7,28.1,06.8,0000.0,0011.06,0005.25,0004.73
2023-04-07 22:53:00,,0829.6,5.01,0.00,26.5,25.2,00.0,34.7,28.1,06.9,0000.0,0011.73,0005.25,0004.71
2023-04-07 22:54:00,,0829.5,5.00,0.00,26.5,25.2,00.0,34.8,28.1,07.1,0000.0,0012.47,0005.24,0004.67
2023-04-07 22:55:00,,0829.5,4.99,0.00,26.5,25.2,00.0,34.8,28.1,07.2,0000.0,0012.16,0005.25,0004.64
2023-04-07 22:56:00,,0829.5,5.00,0.00,26.5,25.2,00.0,34.8,28.1,07.2,0000.0,0011.63,0005.22,0004.61
2023-04-07 22:57:00,,0829.4,5.00,0.00,26.5,25.2,00.0,34.8,28.1,06.9,0000.0,0011.49,0005.20,0004.58
2023-04-07 22:58:00,,0829.5,5.00,0.00,26.5,25.1,00.0,34.8,28.0,06.8,0000.0,0011.80,0005.20,0004.54
2023-04-07 22:59:00,,0829.4,4.99,0.00,26.5,25.1,00.0,34.8,28.0,06.8,0000.0,0011.65,0005.20,0004.52
